Location: Plymouth
(43.7570°N, 71.6890°W)
Time: 10:17:30
(UTC-05:00)

Amateur Radio Satellites - All Passes

Search period start: 22 November 2014 09:47
Search period end: 23 November 2014 09:47
Location: Plymouth, 43.7570°N, 71.6890°W

Satellite Date Start Highest point End Downlink Frequencies (MHz)
Time Altitude Azimuth
TIGRISAT 22 Nov 09:52:58 09:57:12 63° 259° (WSW) 10:01:27 435.000
ESTCUBE 1 22 Nov 09:57:03 09:59:42 15° 91° (E) 10:02:21 437.505/2401.250
DOVE 4 22 Nov 09:59:42 10:03:31 36° 289° (WNW) 10:07:22 437.250
DX 1 22 Nov 10:01:26 10:05:45 62° 287° (WNW) 10:10:01 434.975-435.025
POLYITAN 1 22 Nov 10:01:36 10:05:51 70° 258° (WSW) 10:10:07 437.675
SEEDS 22 Nov 10:01:39 10:04:56 22° 294° (WNW) 10:08:13 437.485
UNISAT 6 22 Nov 10:04:21 10:08:29 46° 261° (W) 10:12:37 437.425
QB50P2 22 Nov 10:05:24 10:09:39 64° 259° (WSW) 10:13:54 145.880/145.840
VELOX 1 22 Nov 10:12:24 10:16:46 54° 100° (E) 10:21:05 145.980
DUCHIFAT 1 22 Nov 10:14:23 10:18:32 51° 260° (W) 10:22:42 145.980
GONETS M04 22 Nov 10:14:41 10:21:55 28° 295° (WNW) 10:29:14
GOMX 1 22 Nov 10:23:11 10:25:54 17° 296° (WNW) 10:28:36 467.674
CANX-2 22 Nov 10:25:20 10:26:41 11° 299° (WNW) 10:28:02 2200.000
ZACube-1 22 Nov 10:26:02 10:30:12 65° 286° (WNW) 10:34:25 437.345
AAUSAT CUBESAT 2 22 Nov 10:27:41 10:30:16 16° 296° (WNW) 10:32:51 437.432
BRITE-PL 22 Nov 10:31:47 10:32:53 11° 300° (WNW) 10:33:58 437.365/2234.400
ANTELSAT 22 Nov 10:33:28 10:36:55 23° 266° (W) 10:40:22 437.575/2403.000
NANOSAT C BR1 22 Nov 10:33:30 10:37:20 32° 263° (W) 10:41:11 145.865
AISAT 22 Nov 10:35:57 10:40:25 83° 285° (WNW) 10:44:49 437.250
HUMSAT D 22 Nov 10:41:02 10:45:10 72° 285° (WNW) 10:49:20 437.325/437.525
COMPASS 1 22 Nov 10:41:16 10:42:25 11° 300° (WNW) 10:43:34 437.405
QB50P1 22 Nov 10:43:08 10:46:42 26° 265° (W) 10:50:17 145.935-145.965
DELFI C3 22 Nov 10:53:56 10:56:43 18° 295° (WNW) 10:59:30 145.870
50 SAT 22 Nov 10:58:03 11:02:01 54° 287° (WNW) 11:05:59 437.505
FUNcube-1 22 Nov 11:02:48 11:06:21 27° 292° (WNW) 11:09:56 145.935
SO-50 22 Nov 11:04:25 11:07:02 14° 32° (NNE) 11:09:39 436.795
CUBEBUG 1 22 Nov 11:04:43 11:09:07 73° 102° (ESE) 11:13:27 437.445
SHINDAISAT 22 Nov 11:06:14 11:08:03 46° 306° (NW) 11:09:54 437.305
UKube-1 22 Nov 11:07:41 11:10:08 15° 299° (WNW) 11:12:34 .
CINEMA 3 22 Nov 11:08:27 11:10:20 13° 298° (WNW) 11:12:14 145.822/145.860
POPSAT HIP 1 22 Nov 11:08:48 11:11:10 15° 269° (W) 11:13:33 437.405
CUBEBUG 2 22 Nov 11:09:46 11:12:39 18° 295° (WNW) 11:15:34 437.445
SPROUT 22 Nov 11:10:31 11:13:38 19° 93° (E) 11:16:44 437.525
TISAT 1 22 Nov 11:13:38 11:17:02 23° 94° (E) 11:20:24 437.305
BUGSAT 1 22 Nov 11:17:27 11:19:42 14° 269° (W) 11:21:56 437.445
UWE-3 22 Nov 11:18:58 11:21:41 17° 296° (WNW) 11:24:26 435.000/436.395/437.385
HO-68 22 Nov 11:23:27 11:26:49 14° 312° (NW) 11:30:11 435.675
ESTCUBE 1 22 Nov 11:32:29 11:36:57 57° 287° (WNW) 11:41:23 437.505/2401.250
M-CUBED/EXP-1 PRIME 22 Nov 11:41:36 11:42:53 11° 92° (E) 11:44:10 437.505
Oscar 19 22 Nov 11:42:57 11:47:34 36° 67° (ENE) 11:52:13 437.125/150
VELOX 1 22 Nov 11:50:09 11:52:56 17° 298° (WNW) 11:55:42 145.980
SWISSCUBE 22 Nov 11:55:18 11:56:50 11° 88° (E) 11:58:22 437.505
BEESAT 22 Nov 12:25:30 12:29:13 22° 93° (E) 12:32:54 436.000
ITAMSAT 1 22 Nov 12:26:37 12:31:23 37° 67° (ENE) 12:36:10 435.822/435.867
YUBILEINY 22 Nov 12:35:07 12:42:54 34° 68° (ENE) 12:50:35 435.215
Gurwin Techsat 1B 22 Nov 12:35:15 12:39:37 27° 64° (ENE) 12:43:59 435.225
CUSAT 1 22 Nov 12:35:33 12:37:49 21° 95° (E) 12:39:55 437.405
HORYU 2 22 Nov 12:39:23 12:40:26 11° 58° (ENE) 12:41:29 437.375
CUBEBUG 1 22 Nov 12:43:02 12:44:54 13° 300° (WNW) 12:46:46 437.445
DANDE 22 Nov 12:43:09 12:45:35 22° 96° (E) 12:47:46 436.750
SO-50 22 Nov 12:43:41 12:48:32 64° 52° (NE) 12:53:24 436.795
SPROUT 22 Nov 12:45:53 12:49:54 39° 290° (WNW) 12:53:52 437.525
TISAT 1 22 Nov 12:49:10 12:52:56 32° 291° (WNW) 12:56:39 437.305
AUBIESAT-1 22 Nov 13:11:19 13:16:15 76° 108° (ESE) 13:21:07 437.475
M-CUBED/EXP-1 PRIME 22 Nov 13:13:36 13:18:33 86° 109° (ESE) 13:23:28 437.505
ITUPSAT 1 22 Nov 13:17:51 13:22:41 70° 102° (ESE) 13:27:27 437.325
Oscar 19 22 Nov 13:22:31 13:26:56 29° 265° (W) 13:31:24 437.125/150
STARS 22 Nov 13:27:26 13:29:23 13° 90° (E) 13:31:20 437.465
SWISSCUBE 22 Nov 13:30:28 13:35:18 81° 285° (WNW) 13:40:05 437.505
AO-7 22 Nov 13:42:00 13:49:11 35° 56° (ENE) 13:56:24 29.400- 29.500
KKS-1 22 Nov 13:57:44 14:01:55 39° 98° (E) 14:06:03 437.445
BEESAT 22 Nov 14:02:42 14:07:15 43° 290° (WNW) 14:11:46 436.000
ITAMSAT 1 22 Nov 14:06:24 14:10:55 30° 265° (W) 14:15:28 435.822/435.867
HORYU 2 22 Nov 14:11:59 14:16:24 89° 256° (WSW) 14:20:52 437.375
Gurwin Techsat 1B 22 Nov 14:14:18 14:19:20 44° 262° (W) 14:24:26 435.225
RS-15 22 Nov 14:23:00 14:28:48 16° 97° (E) 14:34:33 29.354- 29.394
SO-50 22 Nov 14:25:20 14:28:38 18° 250° (WSW) 14:31:56 436.795
YUBILEINY 22 Nov 14:31:40 14:40:06 56° 270° (W) 14:48:28 435.215
AUBIESAT-1 22 Nov 14:47:37 14:50:38 17° 304° (NW) 14:53:40 437.475
M-CUBED/EXP-1 PRIME 22 Nov 14:50:13 14:52:56 15° 306° (NW) 14:55:39 437.505
MaSat-1 22 Nov 14:54:11 14:56:00 15° 109° (ESE) 14:57:43 437.345
ITUPSAT 1 22 Nov 14:57:14 15:00:00 15° 300° (WNW) 15:02:46 437.325
JAS-2 22 Nov 14:59:31 15:06:03 33° 61° (ENE) 15:12:47 435.910
STARS 22 Nov 15:01:57 15:06:18 64° 287° (WNW) 15:10:38 437.465
VERMONT LUNAR 22 Nov 15:06:42 15:08:32 13° 150° (SSE) 15:10:22 437.305
SWISSCUBE 22 Nov 15:11:10 15:12:22 11° 303° (WNW) 15:13:33 437.505
AO-7 22 Nov 15:33:22 15:41:31 61° 256° (WSW) 15:49:46 29.400- 29.500
KKS-1 22 Nov 15:34:56 15:38:20 22° 295° (WNW) 15:41:43 437.445
O/OREOS (USA 219) 22 Nov 15:51:06 15:55:32 60° 64° (ENE) 15:59:57 437.305
MOZHAYETS 4 22 Nov 16:10:26 16:14:32 30° 95° (E) 16:18:36
Cubesat XI-IV 22 Nov 16:14:28 16:19:01 29° 65° (ENE) 16:23:35 437.490
PHONESAT 2.4 22 Nov 16:16:23 16:19:28 25° 158° (SSE) 16:22:33 2401.200-2431.200
MaSat-1 22 Nov 16:27:58 16:30:31 24° 302° (WNW) 16:32:52 437.345
RS-15 22 Nov 16:28:08 16:39:00 72° 118° (ESE) 16:49:52 29.354- 29.394
VERMONT LUNAR 22 Nov 16:43:04 16:46:26 37° 166° (SSE) 16:49:49 437.305
JAS-2 22 Nov 16:43:08 16:50:33 62° 260° (W) 16:58:22 435.910
CUTE-I 22 Nov 16:56:05 17:01:23 64° 72° (ENE) 17:06:42 437.470
PRISM 22 Nov 17:11:55 17:15:22 23° 95° (E) 17:18:46 437.425
O/OREOS (USA 219) 22 Nov 17:32:08 17:34:24 14° 261° (W) 17:36:40 437.305
AO-7 22 Nov 17:34:38 17:36:00 10° 276° (W) 17:37:22 29.400- 29.500
CUBESAT XI-V 22 Nov 17:41:10 17:44:36 20° 92° (E) 17:48:00 437.345
MOZHAYETS 4 22 Nov 17:47:39 17:51:42 30° 292° (WNW) 17:55:45
Cubesat XI-IV 22 Nov 17:53:54 17:58:56 41° 262° (W) 18:04:00 437.490
PHONESAT 2.4 22 Nov 17:54:17 17:57:53 49° 174° (S) 18:01:30 2401.200-2431.200
STRAND 1 22 Nov 18:15:52 18:20:43 41° 98° (E) 18:25:30 437.568
HO-68 22 Nov 18:17:12 18:22:45 25° 56° (NE) 18:28:18 435.675
VERMONT LUNAR 22 Nov 18:21:08 18:24:40 50° 183° (S) 18:28:12 437.305
GONETS M04 22 Nov 18:24:29 18:32:36 38° 70° (ENE) 18:40:36
BRITE-PL 22 Nov 18:27:18 18:29:30 13° 61° (ENE) 18:31:38 437.365/2234.400
JAS-2 22 Nov 18:34:56 18:37:06 11° 280° (W) 18:39:18 435.910
CUTE-I 22 Nov 18:38:21 18:41:54 18° 269° (W) 18:45:27 437.470
RS-15 22 Nov 18:42:06 18:52:13 41° 324° (NW) 19:02:30 29.354- 29.394
CUTE 1.7 & AOD 2 22 Nov 18:42:58 18:45:22 15° 63° (ENE) 18:47:47 437.475
SHINDAISAT 22 Nov 18:46:47 18:48:13 19° 50° (NE) 18:49:37 437.305
PRISM 22 Nov 18:47:09 18:50:57 32° 292° (WNW) 18:54:43 437.425
Oscar 11 22 Nov 19:09:12 19:09:32 10° 59° (ENE) 19:09:51 145.826/435.025
PCSat 22 Nov 19:13:40 19:17:56 24° 108° (ESE) 19:22:14 145.827
CUBESAT XI-V 22 Nov 19:17:48 19:22:16 45° 289° (WNW) 19:26:41 437.345
SEEDS 22 Nov 19:19:24 19:23:04 30° 69° (ENE) 19:26:45 437.485
DX 1 22 Nov 19:24:19 19:26:50 15° 61° (ENE) 19:29:21 434.975-435.025
DOVE 4 22 Nov 19:29:36 19:33:27 26° 68° (ENE) 19:37:08 437.250
PHONESAT 2.4 22 Nov 19:32:55 19:36:27 42° 191° (SSW) 19:39:59 2401.200-2431.200
AIST 1 22 Nov 19:36:16 19:40:35 59° 95° (E) 19:44:56
CANX-2 22 Nov 19:41:28 19:45:38 66° 74° (ENE) 19:49:51 2200.000
AAUSAT CUBESAT 2 22 Nov 19:43:40 19:47:34 41° 71° (ENE) 19:51:30 437.432
ZACube-1 22 Nov 19:50:18 19:51:56 12° 61° (ENE) 19:53:33 437.345
GOMX 1 22 Nov 19:53:11 19:58:00 59° 74° (ENE) 20:02:30 467.674
STRAND 1 22 Nov 19:55:28 19:59:42 27° 296° (WNW) 20:03:53 437.568
COMPASS 1 22 Nov 19:56:04 20:00:10 65° 74° (ENE) 20:04:20 437.405
VERMONT LUNAR 22 Nov 19:59:39 20:02:51 29° 199° (SSW) 20:06:01 437.305
AISAT 22 Nov 20:01:57 20:03:51 13° 60° (ENE) 20:05:44 437.250
BRITE-PL 22 Nov 20:02:18 20:07:29 84° 257° (WSW) 20:12:16 437.365/2234.400
HO-68 22 Nov 20:02:36 20:09:47 74° 255° (WSW) 20:17:01 435.675
DELFI C3 22 Nov 20:08:09 20:11:48 33° 70° (ENE) 20:15:29 145.870
50 SAT 22 Nov 20:16:16 20:17:27 11° 61° (ENE) 20:18:38 437.505
CUTE 1.7 & AOD 2 22 Nov 20:16:45 20:20:52 55° 260° (W) 20:25:02 437.475
GONETS M04 22 Nov 20:21:13 20:29:40 52° 271° (W) 20:38:01
FUNcube-1 22 Nov 20:24:14 20:27:46 26° 68° (ENE) 20:31:16 145.935
UKube-1 22 Nov 20:26:29 20:30:47 61° 73° (ENE) 20:35:06 .
CUBEBUG 2 22 Nov 20:32:10 20:36:14 43° 72° (ENE) 20:40:14 437.445
CINEMA 3 22 Nov 20:32:39 20:37:06 70° 75° (ENE) 20:41:22 145.822/145.860
UWE-3 22 Nov 20:40:15 20:44:19 45° 72° (ENE) 20:48:20 435.000/436.395/437.385
Oscar 11 22 Nov 20:40:42 20:45:00 89° 261° (W) 20:49:20 145.826/435.025
BEESAT 3 22 Nov 20:52:44 20:56:49 76° 122° (ESE) 21:01:00 437.485
SEEDS 22 Nov 20:55:30 20:58:55 24° 266° (W) 21:02:22 437.485
PCSat 22 Nov 20:55:43 21:01:00 53° 306° (NW) 21:06:19 145.827
DX 1 22 Nov 20:58:16 21:02:36 60° 259° (WSW) 21:06:58 434.975-435.025
ESTCUBE 1 22 Nov 20:58:24 21:01:28 18° 63° (ENE) 21:04:31 437.505/2401.250
RS-15 22 Nov 21:00:06 21:08:38 25° 358° (N) 21:17:19 29.354- 29.394
BEESAT 2 22 Nov 21:05:04 21:09:11 89° 304° (WNW) 21:13:24 435.950
DOVE 4 22 Nov 21:06:52 21:11:08 33° 263° (W) 21:15:11 437.250
VELOX 1 22 Nov 21:11:32 21:15:56 59° 73° (ENE) 21:20:21 145.980
PHONESAT 2.4 22 Nov 21:12:14 21:14:45 17° 207° (SSW) 21:17:15 2401.200-2431.200
AIST 1 22 Nov 21:16:24 21:18:41 14° 293° (WNW) 21:20:59
AAUSAT CUBESAT 2 22 Nov 21:20:39 21:23:27 18° 268° (W) 21:26:17 437.432
CANX-2 22 Nov 21:20:43 21:22:03 11° 271° (W) 21:23:23 2200.000
AIST 2 22 Nov 21:22:55 21:27:08 71° 122° (ESE) 21:31:25 435.215
ZACube-1 22 Nov 21:23:33 21:27:47 70° 258° (WSW) 21:31:59 437.345
GOMX 1 22 Nov 21:33:33 21:36:25 16° 268° (W) 21:39:12 467.674
HUMSAT D 22 Nov 21:34:37 21:38:46 86° 256° (WSW) 21:42:55 437.325/437.525
COMPASS 1 22 Nov 21:35:01 21:36:22 11° 271° (W) 21:37:42 437.405
AISAT 22 Nov 21:35:22 21:39:52 78° 257° (WSW) 21:44:23 437.250
TIGRISAT 22 Nov 21:43:52 21:47:23 23° 94° (E) 21:50:57 435.000
DELFI C3 22 Nov 21:44:05 21:47:11 21° 267° (W) 21:50:19 145.870
POLYITAN 1 22 Nov 21:47:24 21:50:14 17° 92° (E) 21:53:03 437.675
50 SAT 22 Nov 21:48:11 21:52:13 71° 258° (WSW) 21:56:16 437.505
QB50P2 22 Nov 21:50:48 21:53:50 19° 93° (E) 21:56:51 145.880/145.840
UNISAT 6 22 Nov 21:55:07 21:59:03 31° 97° (E) 22:03:02 437.425
HO-68 22 Nov 21:55:43 21:58:40 13° 274° (W) 22:01:37 435.675
DUCHIFAT 1 22 Nov 21:59:04 22:02:24 23° 94° (E) 22:05:44 145.980
FUNcube-1 22 Nov 22:00:24 22:04:04 28° 264° (W) 22:07:42 145.935
CUBEBUG 1 22 Nov 22:02:10 22:06:36 72° 74° (ENE) 22:11:03 437.445
UKube-1 22 Nov 22:05:17 22:07:21 13° 270° (W) 22:09:26 .
SPROUT 22 Nov 22:06:36 22:09:40 19° 65° (ENE) 22:12:44 437.525
TISAT 1 22 Nov 22:07:59 22:11:19 23° 66° (ENE) 22:14:39 437.305
CUBEBUG 2 22 Nov 22:10:16 22:13:09 17° 267° (W) 22:16:00 437.445
CINEMA 3 22 Nov 22:13:19 22:14:44 11° 270° (W) 22:16:08 145.822/145.860
NANOSAT C BR1 22 Nov 22:17:26 22:21:20 36° 98° (E) 22:25:13 145.865
UWE-3 22 Nov 22:18:24 22:21:07 16° 268° (W) 22:23:48 435.000/436.395/437.385
ANTELSAT 22 Nov 22:23:07 22:27:30 61° 101° (E) 22:31:57 437.575/2403.000
QB50P1 22 Nov 22:26:42 22:30:46 45° 99° (E) 22:34:49 145.935-145.965
AUBIESAT-1 22 Nov 22:29:48 22:32:01 14° 54° (NE) 22:34:20 437.475
M-CUBED/EXP-1 PRIME 22 Nov 22:32:02 22:34:34 16° 55° (NE) 22:37:14 437.505
BEESAT 3 22 Nov 22:32:55 22:35:35 16° 322° (NW) 22:38:16 437.485
ESTCUBE 1 22 Nov 22:33:30 22:37:56 52° 260° (W) 22:42:25 437.505/2401.250
PCSat 22 Nov 22:43:24 22:45:43 13° 328° (NNW) 22:48:01 145.827
BEESAT 2 22 Nov 22:45:46 22:48:07 15° 324° (NW) 22:50:30 435.950
VELOX 1 22 Nov 22:50:27 22:52:54 14° 269° (W) 22:55:22 145.980
POPSAT HIP 1 22 Nov 22:50:54 22:55:09 85° 103° (ESE) 22:59:21 437.405
ITUPSAT 1 22 Nov 22:51:42 22:53:39 12° 58° (ENE) 22:55:37 437.325
BUGSAT 1 22 Nov 22:56:36 23:00:45 82° 104° (ESE) 23:04:48 437.445
SWISSCUBE 22 Nov 23:02:48 23:05:53 17° 61° (ENE) 23:08:58 437.505
AIST 2 22 Nov 23:03:18 23:06:15 18° 321° (NW) 23:09:13 435.215
CUSAT 1 22 Nov 23:10:14 23:13:59 31° 77° (ENE) 23:18:48 437.405
RS-15 22 Nov 23:15:12 23:25:19 38° 32° (NNE) 23:35:44 29.354- 29.394
DANDE 22 Nov 23:20:09 23:23:46 31° 77° (ENE) 23:28:26 436.750
TIGRISAT 22 Nov 23:20:15 23:24:13 35° 290° (WNW) 23:28:15 435.000
POLYITAN 1 22 Nov 23:22:24 23:26:24 43° 289° (WNW) 23:30:24 437.675
QB50P2 22 Nov 23:25:58 23:29:56 39° 290° (WNW) 23:33:52 145.880/145.840
UNISAT 6 22 Nov 23:32:04 23:35:45 27° 293° (WNW) 23:39:30 437.425
BEESAT 22 Nov 23:33:24 23:37:32 30° 66° (ENE) 23:41:41 436.000
DUCHIFAT 1 22 Nov 23:34:34 23:38:21 33° 291° (WNW) 23:42:06 145.980
SPROUT 22 Nov 23:41:20 23:45:28 43° 261° (W) 23:49:36 437.525
CUBEBUG 1 22 Nov 23:41:59 23:43:28 11° 271° (W) 23:44:58 437.445
TISAT 1 22 Nov 23:43:03 23:46:58 35° 263° (W) 23:50:55 437.305
NANOSAT C BR1 22 Nov 23:53:49 23:57:02 22° 294° (WNW) 00:00:14 145.865
Oscar 19 22 Nov 23:55:40 23:56:53 11° 87° (E) 23:58:06 437.125/150
ANTELSAT 23 Nov 00:01:23 00:03:51 15° 298° (WNW) 00:06:20 437.575/2403.000
AUBIESAT-1 23 Nov 00:02:29 00:06:25 66° 254° (WSW) 00:10:45 437.475
QB50P1 23 Nov 00:03:32 00:06:20 18° 296° (WNW) 00:09:09 145.935-145.965
M-CUBED/EXP-1 PRIME 23 Nov 00:05:15 00:09:07 56° 255° (WSW) 00:13:23 437.505
ITUPSAT 1 23 Nov 00:26:00 00:30:49 88° 256° (WSW) 00:35:41 437.325
ISS 23 Nov 00:26:12 00:29:23 50° 142° (SE) 00:32:35 145.825
STARS 23 Nov 00:26:16 00:28:45 15° 62° (ENE) 00:31:14 437.465
POPSAT HIP 1 23 Nov 00:29:50 00:30:23 10° 301° (WNW) 00:30:57 437.405
MaSat-1 23 Nov 00:31:08 00:33:15 30° 59° (ENE) 00:35:22 437.345
BUGSAT 1 23 Nov 00:35:19 00:35:35 10° 301° (WNW) 00:35:52 437.445
SWISSCUBE 23 Nov 00:38:31 00:43:15 61° 259° (WSW) 00:48:03 437.505
ITAMSAT 1 23 Nov 00:40:37 00:42:02 11° 87° (E) 00:43:26 435.822/435.867
CUSAT 1 23 Nov 00:53:25 00:57:05 27° 264° (W) 01:01:41 437.405
KKS-1 23 Nov 00:57:21 01:01:33 42° 70° (ENE) 01:05:46 437.445
DANDE 23 Nov 01:03:47 01:07:12 24° 264° (W) 01:11:28 436.750
BEESAT 23 Nov 01:11:02 01:15:18 32° 264° (W) 01:19:37 436.000
RS-15 23 Nov 01:27:47 01:39:02 84° 239° (WSW) 01:50:46 29.354- 29.394
Oscar 19 23 Nov 01:31:45 01:36:56 88° 104° (ESE) 01:42:07 437.125/150
YUBILEINY 23 Nov 01:37:59 01:45:47 37° 85° (E) 01:53:34 435.215
STARS 23 Nov 02:00:23 02:04:45 61° 259° (WSW) 02:09:08 437.465
ISS 23 Nov 02:03:09 02:06:09 32° 341° (NNW) 02:09:10 145.825
HORYU 2 23 Nov 02:03:32 02:06:22 16° 92° (E) 02:09:13 437.375
ITAMSAT 1 23 Nov 02:17:01 02:22:15 89° 107° (ESE) 02:27:25 435.822/435.867
Gurwin Techsat 1B 23 Nov 02:28:48 02:34:07 68° 102° (ESE) 02:39:23 435.225
KKS-1 23 Nov 02:35:10 02:38:24 20° 267° (W) 02:41:38 437.445
SO-50 23 Nov 03:02:10 03:04:29 14° 108° (ESE) 03:06:49 436.795
Oscar 19 23 Nov 03:13:02 03:15:33 14° 302° (WNW) 03:18:04 437.125/150
MOZHAYETS 4 23 Nov 03:13:53 03:17:58 33° 68° (ENE) 03:22:05
AO-7 23 Nov 03:33:21 03:41:15 44° 99° (E) 03:49:06 29.400- 29.500
YUBILEINY 23 Nov 03:33:46 03:42:17 52° 285° (WNW) 03:50:50 435.215
BEESAT 3 23 Nov 03:34:56 03:36:49 13° 34° (NE) 03:38:42 437.485
HORYU 2 23 Nov 03:38:59 03:43:21 51° 288° (WNW) 03:47:42 437.375
ISS 23 Nov 03:40:57 03:43:30 20° 1° (N) 03:46:03 145.825
RS-15 23 Nov 03:41:58 03:49:46 22° 260° (W) 03:57:50 29.354- 29.394
BEESAT 2 23 Nov 03:47:14 03:49:35 14° 36° (NE) 03:51:55 435.950
JAS-2 23 Nov 03:53:25 03:58:49 22° 87° (E) 04:03:45 435.910
ITAMSAT 1 23 Nov 03:58:29 04:00:59 14° 303° (WNW) 04:03:29 435.822/435.867
PCSat 23 Nov 03:59:14 04:03:59 29° 47° (NE) 04:08:41 145.827
STRAND 1 23 Nov 03:59:23 03:59:48 10° 55° (NE) 04:00:13 437.568
PRISM 23 Nov 04:04:30 04:07:45 22° 65° (ENE) 04:11:02 437.425
AIST 2 23 Nov 04:06:44 04:08:45 13° 34° (NE) 04:10:46 435.215
Gurwin Techsat 1B 23 Nov 04:10:00 04:13:32 18° 300° (WNW) 04:17:02 435.225
SO-50 23 Nov 04:39:52 04:44:23 72° 306° (NW) 04:49:04 436.795
CUBESAT XI-V 23 Nov 04:46:03 04:49:48 24° 65° (ENE) 04:53:33 437.345
MOZHAYETS 4 23 Nov 04:51:20 04:55:12 27° 266° (W) 04:59:08
BEESAT 3 23 Nov 05:11:37 05:15:50 71° 54° (NE) 05:19:59 437.485
CUTE-I 23 Nov 05:12:42 05:16:50 23° 93° (E) 05:20:56 437.470
ISS 23 Nov 05:17:45 05:20:49 35° 21° (NNE) 05:23:53 145.825
BEESAT 2 23 Nov 05:24:17 05:28:32 86° 56° (NE) 05:32:43 435.950
AO-7 23 Nov 05:26:12 05:34:03 47° 299° (WNW) 05:41:53 29.400- 29.500
STRAND 1 23 Nov 05:32:55 05:38:02 69° 73° (ENE) 05:43:10 437.568
JAS-2 23 Nov 05:37:18 05:44:38 71° 288° (WNW) 05:51:05 435.910
PRISM 23 Nov 05:39:16 05:43:07 35° 262° (W) 05:47:00 437.425
YUBILEINY 23 Nov 05:40:01 05:41:38 11° 310° (NW) 05:43:16 435.215
PCSat 23 Nov 05:42:24 05:47:37 49° 246° (WSW) 05:52:47 145.827
AIST 1 23 Nov 05:43:15 05:46:15 18° 69° (ENE) 05:49:14
AIST 2 23 Nov 05:43:53 05:48:12 70° 54° (NE) 05:52:27 435.215
O/OREOS (USA 219) 23 Nov 06:04:31 06:08:54 55° 109° (ESE) 06:13:18 437.305
Cubesat XI-IV 23 Nov 06:09:28 06:14:50 73° 103° (ESE) 06:20:07 437.490
CUBESAT XI-V 23 Nov 06:22:35 06:27:01 40° 263° (W) 06:31:29 437.345
SO-50 23 Nov 06:23:11 06:25:49 15° 327° (NNW) 06:28:29 436.795
BEESAT 3 23 Nov 06:51:48 06:53:29 12° 252° (WSW) 06:55:10 437.485
CUTE-I 23 Nov 06:52:02 06:57:10 50° 290° (WNW) 07:02:16 437.470
ISS 23 Nov 06:54:22 06:57:31 42° 219° (SW) 07:00:40 145.825
STRAND 1 23 Nov 07:14:43 07:17:43 16° 270° (W) 07:20:43 437.568
AIST 1 23 Nov 07:19:59 07:24:10 43° 267° (W) 07:28:17
AO-7 23 Nov 07:21:58 07:24:46 12° 321° (NW) 07:27:34 29.400- 29.500
JAS-2 23 Nov 07:24:15 07:28:13 16° 310° (NW) 07:31:59 435.910
AIST 2 23 Nov 07:24:17 07:26:16 13° 252° (WSW) 07:28:14 435.215
GONETS M04 23 Nov 07:27:18 07:35:17 41° 86° (E) 07:43:19
CANX-2 23 Nov 07:28:31 07:29:27 11° 88° (E) 07:30:23 2200.000
HO-68 23 Nov 07:30:10 07:35:11 20° 90° (E) 07:40:10 435.675
O/OREOS (USA 219) 23 Nov 07:45:34 07:48:40 18° 308° (NW) 07:51:45 437.305
Cubesat XI-IV 23 Nov 07:50:57 07:54:19 17° 301° (WNW) 07:57:39 437.490
GOMX 1 23 Nov 07:55:34 07:57:26 13° 90° (E) 07:59:19 467.674
CUTE 1.7 & AOD 2 23 Nov 08:01:29 08:04:55 23° 94° (E) 08:08:20 437.475
BRITE-PL 23 Nov 08:06:40 08:10:02 23° 94° (E) 08:13:22 437.365/2234.400
CINEMA 3 23 Nov 08:27:54 08:30:00 14° 91° (E) 08:32:08 145.822/145.860
Oscar 11 23 Nov 08:28:13 08:30:48 15° 91° (E) 08:33:22 145.826/435.025
SEEDS 23 Nov 08:38:07 08:42:16 49° 99° (E) 08:46:25 437.485
POLYITAN 1 23 Nov 08:42:42 08:45:31 17° 64° (ENE) 08:48:19 437.675
TIGRISAT 23 Nov 08:44:38 08:48:04 24° 67° (ENE) 08:51:30 435.000
QB50P2 23 Nov 08:45:51 08:48:49 19° 64° (ENE) 08:51:47 145.880/145.840
DX 1 23 Nov 08:46:16 08:49:34 21° 94° (E) 08:52:50 434.975-435.025
DUCHIFAT 1 23 Nov 08:53:39 08:56:55 22° 66° (ENE) 09:00:11 145.980
UNISAT 6 23 Nov 08:56:03 08:59:51 32° 69° (ENE) 09:03:39 437.425
AAUSAT CUBESAT 2 23 Nov 09:01:23 09:05:37 68° 101° (ESE) 09:09:49 437.432
CANX-2 23 Nov 09:01:36 09:05:53 73° 285° (WNW) 09:10:10 2200.000
DOVE 4 23 Nov 09:04:16 09:08:21 54° 100° (E) 09:12:29 437.250
NANOSAT C BR1 23 Nov 09:11:51 09:15:40 33° 69° (ENE) 09:19:30 145.865
ZACube-1 23 Nov 09:11:52 09:14:57 19° 93° (E) 09:18:02 437.345
COMPASS 1 23 Nov 09:14:28 09:18:43 77° 284° (WNW) 09:22:57 437.405
HO-68 23 Nov 09:16:26 09:23:39 80° 289° (WNW) 09:30:47 435.675
HUMSAT D 23 Nov 09:19:33 09:21:47 14° 91° (E) 09:24:01 437.325/437.525
QB50P1 23 Nov 09:21:04 09:25:05 41° 71° (ENE) 09:29:06 145.935-145.965
DELFI C3 23 Nov 09:22:38 09:26:40 49° 99° (E) 09:30:40 145.870
GONETS M04 23 Nov 09:23:33 09:31:57 48° 287° (WNW) 09:40:27
ANTELSAT 23 Nov 09:23:54 09:28:08 64° 74° (ENE) 09:32:22 437.575/2403.000
AISAT 23 Nov 09:26:29 09:29:34 18° 92° (E) 09:32:38 437.250
50 SAT 23 Nov 09:29:22 09:31:40 15° 91° (E) 09:33:58 437.505
GOMX 1 23 Nov 09:31:54 09:35:58 54° 287° (WNW) 09:40:03 467.674
CUTE 1.7 & AOD 2 23 Nov 09:37:03 09:40:54 33° 290° (WNW) 09:44:45 437.475
